New Richmond, WI

7:04 PM CST on December 10, 2017 (GMT -0600)
New Richmond Municipal

Weather History for KRNH - April, 2014

Change the Weather History Date:

Monday, April 28, 2014

  Actual Average (KSTP) Record (KSTP)
Temperature  
Mean Temperature 41 °F -  
Max Temperature 43 °F 63 °F 90 °F (2004)
Min Temperature 39 °F 40 °F 24 °F (2005)
Degree Days  
Heating Degree Days 24    
Moisture  
Dew Point 37 °F    
Average Humidity 83    
Maximum Humidity 99    
Minimum Humidity 67    
Precipitation  
Precipitation 0.54 in - - ()
Sea Level Pressure  
Sea Level Pressure 29.69 in    
Wind  
Wind Speed 21 mph (East)    
Max Wind Speed 31 mph    
Max Gust Speed 46 mph    
Visibility 8 miles    
Events Rain    
Averages and records for this station are not official NWS values.
T = Trace of Precipitation, MM = Missing Value Source: NWS Daily Summary

Daily Weather History Graph

Daily Weather History Graph

Search for Another Location

Airport or City:

Trip Planner

Search our weather history database for the weather conditions in past years. The results will help you decide how hot, cold, wet, or windy it might be!

Date:

Astronomy

Apr. 28, 2014 Rise Set
Actual Time 6:03 AM CDT 8:12 PM CDT
Civil Twilight 5:31 AM CDT 8:44 PM CDT
Nautical Twilight 4:51 AM CDT 9:24 PM CDT
Astronomical Twilight 4:08 AM CDT 10:08 PM CDT
Moon 5:44 AM CDT (4/28) 7:49 PM CDT (4/28)
Length of Visible Light 15h 13m
Length of Day
14h 08m
Waning Crescent, 0% of the Moon is Illuminated
Apr 28
Waning Crescent
Apr 29
New
May 6
First Quarter
May 14
Full
May 21
Last Quarter

Hourly Weather History & Observations

Time (CDT) Temp. Windchill Dew Point Humidity Pressure Visibility Wind Dir Wind Speed Gust Speed Precip Events Conditions
12:15 AM 41.0 °F 32.5 °F 35.6 °F 81% 29.74 in 10.0 mi East 17.3 mph 32.2 mph N/A   Mostly Cloudy
12:35 AM 41.0 °F 32.2 °F 35.8 °F 82% 29.74 in 10.0 mi ESE 18.4 mph 28.8 mph N/A   Scattered Clouds
12:55 AM 41.5 °F 32.9 °F 35.8 °F 80% 29.74 in 10.0 mi ESE 18.4 mph 27.6 mph N/A   Mostly Cloudy
1:15 AM 41.9 °F 33.4 °F 35.8 °F 79% 29.75 in 10.0 mi ESE 18.4 mph 29.9 mph N/A   Overcast
1:35 AM 41.9 °F 32.6 °F 36.0 °F 79% 29.73 in 10.0 mi East 21.9 mph 31.1 mph N/A Rain Light Rain
1:55 AM 41.5 °F 31.6 °F 36.5 °F 82% 29.72 in 10.0 mi East 24.2 mph 34.5 mph N/A Rain Light Rain
2:15 AM 41.9 °F 32.1 °F 35.8 °F 79% 29.72 in 10.0 mi East 24.2 mph 34.5 mph N/A Rain Light Rain
2:35 AM 41.4 °F 31.9 °F 36.1 °F 82% 29.71 in 10.0 mi East 21.9 mph 28.8 mph 0.01 in Rain Light Rain
2:55 AM 41.7 °F 32.3 °F 35.4 °F 78% 29.70 in 10.0 mi East 21.9 mph 31.1 mph 0.01 in   Overcast
3:15 AM 42.3 °F 33.6 °F 34.5 °F 74% 29.70 in 10.0 mi East 19.6 mph 29.9 mph N/A   Overcast
3:35 AM 42.8 °F 33.5 °F 33.8 °F 70% 29.70 in 10.0 mi East 23.0 mph 33.4 mph N/A   Overcast
3:55 AM 42.8 °F 34.0 °F 33.8 °F 70% 29.69 in 10.0 mi East 20.7 mph 32.2 mph N/A   Overcast
4:15 AM 42.8 °F 33.8 °F 33.6 °F 70% 29.69 in 10.0 mi East 21.9 mph 34.5 mph N/A   Overcast
4:35 AM 42.6 °F 33.5 °F 33.4 °F 70% 29.69 in 10.0 mi East 21.9 mph 34.5 mph N/A   Overcast
5:15 AM 42.1 °F 32.1 °F 34.2 °F 74% 29.68 in 10.0 mi East 25.3 mph 32.2 mph N/A   Overcast
5:35 AM 41.4 °F 32.4 °F 35.1 °F 78% 29.68 in 4.0 mi East 19.6 mph 36.8 mph 0.01 in Rain Rain
5:55 AM 41.4 °F 32.1 °F 35.2 °F 79% 29.68 in 10.0 mi East 20.7 mph 33.4 mph 0.03 in   Overcast
6:15 AM 41.0 °F 30.5 °F 36.1 °F 83% 29.68 in 10.0 mi East 26.5 mph 33.4 mph N/A   Overcast
6:35 AM 40.1 °F 29.2 °F 37.0 °F 89% 29.67 in 4.0 mi East 26.5 mph 39.1 mph N/A   Overcast
6:55 AM 39.7 °F 29.2 °F 38.5 °F 95% 29.67 in 3.0 mi East 24.2 mph 41.4 mph 0.01 in   Overcast
7:15 AM 39.6 °F 28.3 °F 38.7 °F 97% 29.68 in 2.5 mi East 27.6 mph 32.2 mph 0.02 in Rain Light Rain
7:35 AM 39.6 °F 29.5 °F 38.3 °F 95% 29.68 in 4.0 mi East 21.9 mph 36.8 mph 0.03 in Rain Light Rain
7:55 AM 39.2 °F 28.0 °F 38.3 °F 97% 29.67 in 3.0 mi East 26.5 mph 32.2 mph 0.06 in Rain Light Rain
8:15 AM 39.2 °F 28.7 °F 38.3 °F 97% 29.67 in 1.8 mi East 23.0 mph 34.5 mph 0.02 in   Overcast
8:35 AM 39.6 °F 28.3 °F 38.5 °F 96% 29.66 in 5.0 mi East 27.6 mph 33.4 mph 0.04 in Rain Light Rain
8:55 AM 39.6 °F 29.7 °F 38.7 °F 97% 29.65 in 4.0 mi East 20.7 mph 36.8 mph 0.07 in Rain Light Rain
9:15 AM 40.1 °F 29.5 °F 38.7 °F 95% 29.64 in 5.0 mi East 25.3 mph 32.2 mph 0.02 in Rain Light Rain
9:55 AM 40.1 °F 30.2 °F 38.5 °F 94% 29.64 in 4.0 mi East 21.9 mph 38.0 mph 0.05 in Rain Light Rain
10:15 AM 40.1 °F 31.0 °F 38.1 °F 93% 29.65 in 7.0 mi East 18.4 mph 29.9 mph 0.02 in Rain Light Rain
10:35 AM 40.6 °F 31.4 °F 37.8 °F 89% 29.66 in 10.0 mi East 19.6 mph 33.4 mph 0.03 in Rain Light Rain
11:15 AM 41.4 °F 31.9 °F 36.5 °F 83% 29.66 in 10.0 mi East 21.9 mph 29.9 mph 0.01 in Rain Light Rain
11:55 AM 41.7 °F 33.1 °F 36.1 °F 81% 29.66 in 10.0 mi East 18.4 mph 31.1 mph 0.01 in Rain Light Rain
12:15 PM 41.4 °F 33.0 °F 36.5 °F 83% 29.67 in 7.0 mi East 17.3 mph 32.2 mph 0.01 in Rain Light Rain
12:35 PM 41.2 °F 32.1 °F 36.9 °F 85% 29.66 in 4.0 mi East 19.6 mph 32.2 mph 0.04 in Rain Light Rain
1:15 PM 41.0 °F 32.5 °F 37.9 °F 89% 29.66 in 4.0 mi East 17.3 mph 29.9 mph 0.03 in Rain Light Rain
1:35 PM 41.0 °F 31.9 °F 38.1 °F 89% 29.68 in 7.0 mi East 19.6 mph 27.6 mph 0.05 in Rain Light Rain
1:55 PM 40.6 °F 30.4 °F 39.6 °F 96% 29.68 in 2.5 mi East 24.2 mph 34.5 mph 0.09 in Rain Light Rain
2:15 PM 41.0 °F 30.2 °F 39.7 °F 95% 29.68 in 2.5 mi East 27.6 mph 40.3 mph 0.05 in Rain Light Rain
2:35 PM 40.5 °F 29.3 °F 40.1 °F 99% 29.65 in 3.0 mi East 28.8 mph 42.6 mph 0.09 in Rain Light Rain
2:55 PM 41.0 °F 29.7 °F 40.3 °F 97% 29.64 in 5.0 mi East 31.1 mph 40.3 mph 0.12 in Rain Light Rain
3:15 PM 41.2 °F 29.9 °F 40.6 °F 98% 29.62 in 7.0 mi East 31.1 mph 46.0 mph 0.01 in Rain Light Rain
3:35 PM 41.9 °F 31.9 °F 40.5 °F 95% 29.67 in 10.0 mi East 25.3 mph 38.0 mph 0.01 in   Light Drizzle
3:55 PM 42.3 °F 32.4 °F 39.2 °F 89% 29.67 in 10.0 mi East 25.3 mph 39.1 mph 0.01 in   Overcast
4:15 PM 43.0 °F 32.7 °F 38.3 °F 84% 29.66 in 10.0 mi East 28.8 mph 38.0 mph N/A   Overcast
4:35 PM 43.3 °F 33.6 °F 37.0 °F 78% 29.67 in 10.0 mi East 26.5 mph 41.4 mph N/A   Overcast
4:55 PM 43.0 °F 33.5 °F 37.4 °F 81% 29.67 in 10.0 mi East 24.2 mph 36.8 mph N/A   Overcast
5:15 PM 42.4 °F 34.1 °F 37.4 °F 82% 29.69 in 10.0 mi East 18.4 mph 31.1 mph N/A   Overcast
5:35 PM 41.9 °F 33.4 °F 37.9 °F 86% 29.70 in 7.0 mi East 18.4 mph 38.0 mph N/A   Drizzle
5:55 PM 41.9 °F 32.6 °F 38.7 °F 88% 29.69 in 10.0 mi East 21.9 mph 32.2 mph N/A Rain Light Rain
6:15 PM 41.9 °F 31.9 °F 38.1 °F 86% 29.68 in 10.0 mi East 25.3 mph 33.4 mph 0.01 in Rain Light Rain
6:35 PM 42.1 °F 33.1 °F 37.8 °F 85% 29.69 in 10.0 mi East 20.7 mph 32.2 mph 0.01 in   Overcast
6:55 PM 42.8 °F 34.5 °F 37.0 °F 80% 29.71 in 10.0 mi East 18.4 mph 31.1 mph 0.01 in   Overcast
7:15 PM 42.8 °F 33.8 °F 37.0 °F 80% 29.72 in 10.0 mi East 21.9 mph 28.8 mph N/A   Overcast
7:35 PM 42.8 °F 34.8 °F 37.0 °F 80% 29.72 in 10.0 mi East 17.3 mph 26.5 mph N/A   Overcast
7:55 PM 43.2 °F 34.7 °F 36.9 °F 78% 29.72 in 10.0 mi East 19.6 mph 26.5 mph N/A   Overcast
8:15 PM 43.2 °F 35.9 °F 36.7 °F 78% 29.72 in 10.0 mi East 15.0 mph 26.5 mph N/A   Overcast
8:35 PM 43.2 °F 35.0 °F 36.5 °F 77% 29.71 in 10.0 mi ENE 18.4 mph 27.6 mph N/A   Overcast
8:55 PM 43.3 °F 34.5 °F 36.0 °F 75% 29.71 in 10.0 mi ENE 21.9 mph 29.9 mph N/A   Overcast
9:15 PM 43.2 °F 33.8 °F 35.4 °F 74% 29.71 in 10.0 mi East 24.2 mph 33.4 mph N/A   Overcast
9:55 PM 43.0 °F 34.5 °F 34.3 °F 72% 29.70 in 10.0 mi ENE 19.6 mph 27.6 mph N/A   Overcast
10:15 PM 42.8 °F 34.5 °F 34.0 °F 71% 29.70 in 10.0 mi ENE 18.4 mph 32.2 mph N/A   Overcast
10:35 PM 42.8 °F 34.5 °F 33.6 °F 70% 29.70 in 10.0 mi ENE 18.4 mph 31.1 mph N/A   Overcast
10:55 PM 42.4 °F 33.8 °F 33.1 °F 69% 29.71 in 10.0 mi East 19.6 mph 29.9 mph N/A   Overcast
11:15 PM 42.8 °F 34.8 °F 32.5 °F 67% 29.71 in 10.0 mi ENE 17.3 mph 24.2 mph N/A   Overcast
11:35 PM 42.6 °F 34.0 °F 32.4 °F 67% 29.71 in 10.0 mi ENE 19.6 mph 26.5 mph N/A   Overcast
11:55 PM 42.4 °F 34.7 °F 32.2 °F 67% 29.71 in 10.0 mi ENE 16.1 mph 27.6 mph N/A   Overcast